星链-36597(STARLINK-36597)

导读

STARLINK-36597是美国SpaceX公司星链计划中的一颗卫星,于2026年1月29日发射升空。作为星链星座组网的组成部分,它主要用于为全球提供低延迟、高速率的宽带互联网服务,尤其能覆盖偏远地区等网络基础设施薄弱区域,进一步完善星链系统的全球覆盖能力。

基本信息
目录编号:
67613
目录名称:
STARLINK-36597
国际标识:
2026-018AA
轨道中心:
EARTH
卫星名称:
星链-36597
卫星全名:
星链-36597(STARLINK-36597)
卫星状态:
在轨 (已飞行135 天)
发射日期:
2026-01-29 UTC
国别 :
美国 (US)
星等 :
--
轨道信息
数据来源 国际轨道数据 AOE轨道数据
星历时间 2026-06-13T02:26:26+0800
8小时前
查看轨道信息
2026-06-10T06:00:00+0800
3天前
查看轨道信息
半长轴 6843.667km 6843.692km
偏心率 0.0000529 0.000002
轨道倾角 97.285° 97.286°
近地点辐角 224.276° 125.699°
升交点赤经 228.608° 225.798°
平近点角 135.844° 342.201°
近地点 465.167km 465.541km
远地点 465.893km 465.569km
周期 93.906分钟 93.906分钟
每日圈数 15.334496 15.334411
详细信息
固有亮度:
5
最大亮度:
2.5
卫星平台:
Starlink V1.0
覆盖范围:
全球
运营商:
太空探索技术公司
运营商所在国:
美国
制造商(研发单位):
太空探索技术公司
制造商所在国:
美国
使用方式:
暂无
卫星简介
Starlink 计划是 SpaceX 推出的全球卫星互联网项目,通过发射低轨道卫星,为全球尤其是偏远地区提供高速、低延迟的互联网服务。自 2019 年起,Starlink 已部署数千颗卫星,旨在缩小全球数字鸿沟,推动互联网普及。该项目还为军事、航空等行业提供通信支持,带来广泛经济效益。
2D轨道图
3D轨道图
轨道高度分析图
轨道倾角分析图
轨道综合分析图
查看轨道综合分析图